Lid_Strength_Index
0 -0 -0 0 1 2 3 5 7 1 2 7 5 7 6 6 6 5 6 6 7 11 12 12 12 12 10 7 7 8 6 8 10 9 6 6 7 8 8 10 11 9 10 10
-0 -0 -0 1 1 2 5 7 5 2 2 9 8 6 6 5 6 6 7 7 6 7 12 13 12 12 8 8 8 9 8 9 11 10 8 7 8 7 7 7 8 10 11 10
-0 -0 0 1 1 2 4 6 8 5 5 5 7 7 7 7 5 7 7 7 6 7 10 10 13 13 10 9 8 6 7 9 10 12 10 8 9 8 7 8 10 10 9 8
-0 -0 0 1 1 2 4 6 8 7 10 8 7 7 7 8 9 6 6 7 7 8 10 11 11 11 11 10 7 7 7 11 9 8 7 7 8 8 8 8 8 10 8 8
-0 -0 0 1 1 2 5 9 9 8 8 7 8 7 8 8 7 7 7 8 8 7 9 9 12 11 12 12 10 9 7 11 9 10 8 8 9 8 8 8 8 7 8 8
0 0 0 0 2 3 6 5 6 8 9 8 9 9 8 8 6 6 5 6 7 7 7 5 6 8 8 10 11 11 10 10 11 13 9 9 11 8 8 7 7 7 9 6
0 0 0 1 2 3 3 4 7 10 12 10 9 8 7 8 7 8 5 5 6 5 3 4 5 7 8 8 10 9 11 10 10 12 11 16 9 6 6 7 6 6 6 5
0 1 1 1 2 3 3 4 7 10 13 10 9 8 8 7 6 7 6 5 4 3 4 7 9 9 9 9 9 10 9 10 11 13 13 11 9 7 7 8 8 5 6 5
1 1 1 2 2 3 2 4 5 9 12 11 8 8 7 9 9 7 6 3 2 3 6 8 12 14 11 11 10 8 9 9 11 11 14 15 9 6 5 5 10 5 5 5
1 1 2 2 2 2 3 4 4 8 12 10 9 10 9 7 7 8 6 5 5 4 8 10 12 12 9 11 11 11 12 12 13 12 13 10 8 7 6 11 12 6 6 6
1 1 2 2 2 2 3 4 4 7 10 9 8 7 8 7 7 9 6 7 7 7 11 11 11 12 10 9 9 9 10 12 12 11 12 14 7 7 10 8 5 5 5 5
1 1 2 2 2 2 2 5 3 4 9 9 6 6 5 5 5 6 6 7 6 6 9 9 9 10 9 10 12 7 11 9 10 10 10 6 6 7 6 6 6 6 6 6
1 2 2 3 2 2 3 3 5 6 9 9 8 7 4 3 3 3 7 6 5 5 4 7 7 9 8 11 10 9 7 5 8 8 8 7 7 6 6 6 6 6 6 6
1 2 2 3 2 3 3 4 4 6 8 11 8 3 5 3 3 3 4 4 4 5 5 8 8 9 6 9 8 9 7 7 8 9 7 7 7 7 7 7 6 6 6 6
2 2 2 3 3 3 2 1 4 4 7 10 8 5 4 4 3 4 4 5 6 7 8 9 10 8 8 7 7 8 6 7 9 10 7 7 7 6 6 7 7 6 6 6
2 2 3 3 3 3 2 6 4 3 5 9 11 6 6 5 5 5 5 5 5 7 10 11 9 8 10 12 12 8 7 7 7 8 5 6 6 5 5 6 6 6 6 5
2 2 3 3 3 2 5 6 4 4 5 9 11 8 6 5 6 6 6 6 9 10 12 13 13 12 11 13 14 11 10 10 10 7 6 8 7 7 5 5 5 5 5 5
2 3 3 3 4 4 4 4 4 4 6 7 10 9 7 6 8 9 8 10 11 11 11 12 13 12 13 15 13 11 8 6 6 8 8 8 6 6 5 5 5 6 6 5
3 3 3 2 3 4 4 4 4 3 6 7 9 12 12 6 7 8 9 10 13 11 13 12 13 14 14 13 10 9 8 7 7 5 6 7 8 7 7 6 5 6 6 5
3 3 3 5 3 4 4 5 7 7 5 5 9 8 10 7 7 8 9 9 10 13 10 10 12 13 8 7 8 8 7 6 5 7 7 6 7 6 6 6 6 5 5 5
2 3 3 2 3 3 4 7 7 6 8 6 6 6 8 4 9 9 7 9 9 14 10 10 12 13 9 7 7 7 7 7 6 6 6 5 5 6 5 5 4 4 5 5
2 1 1 1 3 5 7 8 6 7 9 6 6 6 5 5 4 8 7 9 8 12 8 12 15 10 7 6 6 6 6 6 6 6 7 7 5 5 4 5 5 4 4 4
0 2 4 5 5 11 11 14 10 9 6 5 5 7 6 5 5 7 7 9 10 6 11 13 11 8 7 6 6 6 6 6 6 5 6 6 6 6 4 5 4 5 5 5
3 5 12 7 8 7 6 6 6 4 4 4 5 8 7 5 6 6 10 8 8 12 14 14 9 7 6 5 6 6 7 6 7 7 5 6 6 6 6 5 5 7 7 8
4 4 11 7 5 4 4 3 4 3 3 4 5 5 5 6 8 7 8 10 13 12 13 10 7 5 5 5 4 5 6 7 6 5 6 6 6 6 7 6 5 6 7 7
3 4 6 4 5 5 4 4 4 3 3 3 4 6 8 8 7 9 10 12 13 10 8 6 5 5 5 4 4 4 4 5 6 5 5 5 6 6 6 6 6 6 6 7
5 5 3 4 4 5 4 4 4 2 4 6 5 8 9 6 8 10 8 9 7 5 5 4 3 4 4 4 3 4 4 4 4 4 4 4 4 5 6 7 7 6 7 8